Change the Weather History Date:

Wednesday, May 28, 2014

  Actual Average Record
Temperature  
Mean Temperature 57 °F -  
Max Temperature 63 °F 59 °F 68 °F (1997)
Min Temperature 51 °F 45 °F 42 °F (1999)
Degree Days  
Heating Degree Days 8    
Growing Degree Days 7 (Base 50)    
Moisture  
Dew Point 46 °F    
Average Humidity 68    
Maximum Humidity 80    
Minimum Humidity 54    
Precipitation  
Precipitation 0.00 in - - ()
Sea Level Pressure  
Sea Level Pressure 30.11 in    
Wind  
Wind Speed 8 mph (SW)    
Max Wind Speed 17 mph    
Max Gust Speed 25 mph    
Visibility 10 miles    
Events      
Averages and records for this station are not official NWS values.
T = Trace of Precipitation, MM = Missing Value Source: NWS Daily Summary

Daily Weather History Graph

Daily Weather History Graph

Search for Another Location

Airport or City:

Trip Planner

Search our weather history database for the weather conditions in past years. The results will help you decide how hot, cold, wet, or windy it might be!

Date:

Astronomy

May. 28, 2014 Rise Set
Actual Time 5:16 AM PDT 8:59 PM PDT
Civil Twilight 4:37 AM PDT 9:39 PM PDT
Nautical Twilight 3:43 AM PDT 10:33 PM PDT
Astronomical Twilight 2:26 AM PDT 11:52 PM PDT
Moon 5:33 AM PDT (5/28) 8:58 PM PDT (5/28)
Length of Visible Light 17h 02m
Length of Day
15h 43m
New Moon, 0% of the Moon is Illuminated
May 28
New Moon
Jun 5
First Quarter
Jun 12
Full
Jun 19
Last Quarter
Jun 27
New

Hourly Weather History & Observations

Time (PDT) Temp. Dew Point Humidity Pressure Visibility Wind Dir Wind Speed Gust Speed Precip Events Conditions
12:56 AM 52.0 °F 46.0 °F 80% 30.10 in 10.0 mi West 4.6 mph - N/A   Partly Cloudy
1:56 AM 52.0 °F 46.0 °F 80% 30.10 in 10.0 mi WSW 3.5 mph - N/A   Partly Cloudy
2:56 AM 52.0 °F 46.0 °F 80% 30.11 in 10.0 mi SW 6.9 mph - N/A   Mostly Cloudy
3:56 AM 52.0 °F 46.0 °F 80% 30.10 in 10.0 mi SW 8.1 mph - N/A   Mostly Cloudy
4:56 AM 52.0 °F 45.0 °F 77% 30.10 in 10.0 mi SSW 6.9 mph - N/A   Scattered Clouds
5:56 AM 51.1 °F 44.1 °F 77% 30.11 in 10.0 mi Calm Calm - N/A   Mostly Cloudy
6:56 AM 55.0 °F 45.0 °F 69% 30.11 in 10.0 mi WSW 5.8 mph - N/A   Mostly Cloudy
7:56 AM 55.9 °F 46.0 °F 69% 30.12 in 10.0 mi SW 6.9 mph - N/A   Overcast
8:56 AM 57.9 °F 46.9 °F 67% 30.12 in 10.0 mi South 8.1 mph - N/A   Overcast
9:56 AM 57.0 °F 46.9 °F 69% 30.12 in 10.0 mi WSW 6.9 mph - N/A   Overcast
10:56 AM 60.1 °F 48.0 °F 64% 30.12 in 10.0 mi SW 6.9 mph - N/A   Overcast
11:56 AM 60.1 °F 48.0 °F 64% 30.12 in 10.0 mi WSW 10.4 mph - N/A   Overcast
12:56 PM 63.0 °F 48.0 °F 58% 30.11 in 10.0 mi SW 9.2 mph - N/A   Overcast
1:56 PM 62.1 °F 46.9 °F 58% 30.11 in 10.0 mi WSW 10.4 mph - N/A   Mostly Cloudy
2:56 PM 62.1 °F 48.0 °F 60% 30.11 in 10.0 mi SW 16.1 mph - N/A   Mostly Cloudy
3:56 PM 63.0 °F 48.9 °F 60% 30.10 in 10.0 mi SW 17.3 mph - N/A   Mostly Cloudy
4:56 PM 63.0 °F 46.0 °F 54% 30.10 in 10.0 mi SW 16.1 mph 25.3 mph N/A   Mostly Cloudy
5:56 PM 62.1 °F 46.9 °F 58% 30.10 in 10.0 mi SW 16.1 mph - N/A   Mostly Cloudy
6:56 PM 59.0 °F 46.0 °F 62% 30.11 in 10.0 mi SW 13.8 mph - N/A   Mostly Cloudy
7:56 PM 57.9 °F 46.9 °F 67% 30.11 in 10.0 mi SW 11.5 mph - N/A   Mostly Cloudy
8:56 PM 55.0 °F 46.0 °F 72% 30.12 in 10.0 mi WSW 10.4 mph - N/A   Mostly Cloudy
9:56 PM 55.0 °F 45.0 °F 69% 30.12 in 10.0 mi West 16.1 mph 23.0 mph N/A   Mostly Cloudy
10:56 PM 54.0 °F 46.0 °F 75% 30.13 in 10.0 mi West 15.0 mph - N/A   Mostly Cloudy
11:56 PM 54.0 °F 46.0 °F 75% 30.15 in 10.0 mi West 15.0 mph - N/A   Mostly Cloudy